Location: Marcé
(47.5801°N, 0.3280°W)
Time: 14:20:47
(UTC+01:00)

Explorer 7 - Pass Details

Date: 30 November 2021
Orbit: 483 x 674 km, 50.3° (Epoch: 19 January)

Event Time Altitude Azimuth Distance (km) Brightness Sun altitude
Rises 09:15:02 0° 249° (WSW) 2,740 10.1 5.6°
Reaches altitude 10° 09:17:20 10° 249° (WSW) 1,813 9.2 5.9°
Maximum altitude 09:21:27 89° 176° (S) 529 6.9 6.4°
Drops below altitude 10° 09:25:21 10° 71° (ENE) 1,720 9.8 6.9°
Sets 09:27:30 0° 71° (ENE) 2,586 10.7 7.2°
